Track COSMOS 2251 now! 10-day predictions COSMOS 2251 is classified as:
1 22675U 93036A 25199.80926395 .00000057 00000-0 30166-4 0 9993 2 22675 74.0371 224.3278 0025249 342.1034 17.9226 14.33150138676682